Location: Byszew
(52.1813°N, 19.2693°E)
Time: 23:16:36
(UTC+00:00)

Gbstr 26 Del rocket - Visible Passes

Search period start: 24 June 2021 00:00
Search period end: 04 July 2021 00:00
Orbit: 492 x 1263 km, 51.8° (Epoch: 24 June)

Date Brightness Start Highest point End Pass type
(mag) Time Alt. Az. Time Alt. Az. Time Alt. Az.
25 Jun 5.5 00:47:45 10° SSE 00:49:36 12° SE 00:51:35 10° ESE visible
26 Jun 5.3 00:41:54 10° SSE 00:44:28 15° SE 00:47:19 10° E visible
27 Jun 5.1 00:36:21 10° S 00:39:22 18° SE 00:42:47 10° E visible
28 Jun 4.9 00:31:28 12° S 00:34:16 21° SE 00:38:08 10° E visible
29 Jun 4.6 00:26:32 15° S 00:29:13 24° SE 00:33:24 10° E visible
30 Jun 4.3 00:21:35 17° S 00:24:11 29° SE 00:28:37 10° E visible
01 Jul 4.1 00:16:35 18° SSW 00:19:10 33° SE 00:23:48 10° E visible
02 Jul 3.8 00:11:33 19° SSW 00:14:10 38° SSE 00:18:57 10° E visible
02 Jul 5.2 22:23:58 11° ESE 22:23:58 11° ESE 22:24:45 10° ESE visible
03 Jul 3.6 00:06:28 19° SSW 00:09:12 44° SSE 00:14:05 10° E visible
03 Jul 4.9 22:18:50 13° SE 22:18:50 13° SE 22:20:41 10° E visible
